Regional Weather Roundup
Issued by NWS Midland/Odessa, TX

Skip options and go directly to product.
Home | Oldest Version | Previous Version | Current Version | All | Graphics & Text | Save Text | Print | Product List | Glossary On

Skip product version selection by date and time.   
300
ASUS44 KMAF 061510
RWRMAF
MIDLAND AREA WEATHER ROUNDUP
NATIONAL WEATHER SERVICE MIDLAND TX
1000 AM CDT MON JUL 06 2015

...IN SOUTHWEST TEXAS AND SOUTHEAST NEW MEXICO...

CITY           SKY/WX    TMP DP  RH WIND       PRES   REMARKS
ALPINE         MOSUNNY   78  62  56 SW9       30.18F
ANDREWS        FAIR      82  66  57 S13       30.02R
ARTESIA        SUNNY     84  61  45 N6        30.02R
BIG SPRING     SUNNY     82  68  63 S21       30.02S
CARLSBAD       SUNNY     86  61  42 CALM      29.99S
DRYDEN           N/A     82  72  71 SE7       30.00S
FORT STOCKTON  MOSUNNY   85  64  49 SW13      30.02R
GUAD PASS      CLOUDY    71  59  65 W24       30.17R
HOBBS          SUNNY     81  64  57 S10       30.03R
MARFA          MOSUNNY  N/A N/A N/A SW5       30.19S
MIDLAND AIRPK  SUNNY     83  68  59 S15G21    30.01S
MIDLAND INTL   SUNNY     83  68  60 S14G23    30.00S
ODESSA         SUNNY     82  67  60 MISG      30.02R
PECOS          PTSUNNY   86  61  43 SW6       29.99R
PRESIDIO       FAIR      83  65  54 E3        30.06R
SEMINOLE       SUNNY     83  65  54 SW10G17   30.03R
SNYDER         MOSUNNY   80  70  73 S17       30.01S
WINK           MOSUNNY   83  65  54 S9        29.98S
$$
...OTHER STATIONS IN TEXAS...

CITY           SKY/WX    TMP DP  RH WIND       PRES   REMARKS
ABILENE        PTSUNNY   84  71  65 S21G29    30.00R
AMARILLO       SUNNY     78  65  63 SW14      30.02R
AUSTIN         PTSUNNY   80  72  76 S13G24    30.06R
BROWNSVILLE    PTSUNNY   87  76  69 SE17      30.04S
CORPUS CHRISTI PTSUNNY   85  74  69 S23G30    30.04S
DALLAS FTW     PTSUNNY   84  71  65 S22G31    30.01R
DEL RIO        CLOUDY    80  71  74 SE14      29.99R
EL PASO        PTSUNNY   79  60  52 SW14      30.08R
HOUSTON INT    MOSUNNY   86  76  71 S12       30.09S
LUBBOCK        SUNNY     81  67  62 S16       30.00S
SAN ANGELO     PTSUNNY   82  70  66 S10       30.01S
SAN ANTONIO    PTSUNNY   82  72  71 S16       30.07S
WACO           MOSUNNY   84  71  65 S16G26    30.05S
WICHITA FALLS  NOT AVBL
$$
...OTHER LOCATIONS IN NEW MEXICO...

CITY           SKY/WX    TMP DP  RH WIND       PRES   REMARKS
ALAMAGORDO     MOSUNNY   77  57  50 SW3       30.10R
ALBUQUERQUE    PTSUNNY   73  59  61 CALM      30.19R
CANNON AFB     MOSUNNY   77  64  63 W8        30.04R
CLOVIS         SUNNY     77  64  65 W10         N/A
HOLLOMAN AFB   MOSUNNY   80  59  49 N9        30.07R
ROSWELL        MOSUNNY   83  59  44 CALM      30.01R
RUIDOSO        PTSUNNY   68  55  64 NW10      30.27R
SANTA FE       PTSUNNY   66  56  70 NW8       30.22R
TRUTH OR CONSE MOSUNNY   78  55  44 VRB6      30.14R
TUCUMCARI      MOSUNNY   81  59  47 NE17G28   30.03R
$$

USA.gov is the U.S. government's official web portal to all federal, state and local government web resources and services.